ONEWEB-0206, 48227

Orbit data source: Space-Track

ONEWEB-0206, 48227 is a payload satellite owned by One Web (NAA) (UK) in LEO that was launched on Sun, 25 Apr 2021 UTC via a SOYUZ-2-1B launch vehicle from the Vostochny Cosmodrome (VOSTO). Payload-class satellites include a variety of spacecraft equipped with specific instruments for various scientific and technological missions. These include communications satellites like Starlink; space stations such as the ISS; scientific satellites like the Hubble; Earth observation satellites from companies like Planet Labs, Umbra, and HawkEye 360; GPS; miniature CubeSats for education and research; and military/defense satellites.

Loading next visibility...
Identifier
48227, 2021-031T
Orbit
LEO
Country
Flag of UKUK
Related business
Manufacturer
One Web
Mission
Operational Commercial Communications
Bus & Motor
ARROW, Unknown motor
Mass
148 kg wet, ~140 kg dry
Launch date (UTC)
2021-04-25 (5 years ago)
Launch vehicle
SOYUZ-2-1B
Launch site
Vostochny Cosmodrome (VOSTO)
Object type
Payload
Rocket body
Debris
Shape & HBR
Trap Box + 2 Pan, 6.7 m
Radar Cross Section
3.464 m², Large (>1 m²)

Expand to show TLE details & history
Last TLE update: 1 day ago

TLE from 1 day ago
0 ONEWEB-0206
1 48227U 21031T   25305.51860759 -.00000198  00000-0 -56852-3 0  9995
2 48227  87.9017 335.0368 0001895 104.3059 255.8281 13.14502375218317
Epoch: 2025-11-01T12:26Z
TLE epoch observation values (Epoch: 2025-11-01T12:26:47.695Z)
Latitude
-0.00006°
Longitude
107.29054°
Altitude
1,209.038 km
Speed
7.249 km/s
True Right ascension
22h 20m 08s
True Declination
0° 00' 00"
Sunlit
Object was in daylight at epoch
Visualization orbit readout
Latitude
Unknown
Longitude
Unknown
Altitude
Unknown
Speed
Unknown
Apparent Right ascension
Unknown
Apparent Declination
Unknown
Sunlit
N/A
Visualization observer readout
Local Sidereal Time
09:09:35
Azimuth
Unknown
Elevation
Unknown
Doppler factor
Unknown
Orbital elements
Apogee altitude
1,204.342 km
Perigee altitude
1,201.469 km
Semi-major axis
7,581.043 km
Eccentricity
0.00019
Inclination
87.9017°
RAAN
335.0368°
Arg. of periapsis
104.3059°
True anomaly
255.80705°
Mean anomaly
255.8281°
Eccentric anomaly
255.81757°
Mean motion
3.28814 °/min
Orbital period
109.48 mins
BSTAR
-0.00056852
Loading maneuver chart data...
Computing Atmospheric mass density...
Loading historical data...
Loading historical data...
Loading historical data...
Loading historical data...
Loading historical data...
Loading historical data...
Loading historical data...

Documentation

Showing up to 5 results
|